Location: Paris
(48.6709°N, 2.3750°E)
Time: 16:29:41
(UTC+02:00)

LO-87 - Visible Passes

Search period start: 26 June 2022 00:00
Search period end: 06 July 2022 00:00
Orbit: 454 x 468 km, 97.4° (Epoch: 26 June)

Date Brightness Start Highest point End Pass type
(mag) Time Alt. Az. Time Alt. Az. Time Alt. Az.
26 Jun ? 01:29:30 48° SSW 01:30:15 65° W 01:33:42 10° NNW visible
27 Jun ? 00:57:40 34° SE 00:58:46 49° ENE 01:02:07 10° N visible
27 Jun ? 02:31:33 12° W 02:32:02 13° W 02:33:36 10° WNW visible
28 Jun ? 00:25:50 16° ESE 00:27:22 22° ENE 00:30:06 10° NNE visible
28 Jun ? 01:59:42 26° WSW 02:00:14 28° W 02:03:17 10° NW visible
28 Jun ? 23:55:14 10° ENE 23:56:08 11° ENE 23:57:02 10° NE visible
29 Jun ? 01:27:51 50° SSW 01:28:35 69° WSW 01:32:03 10° NNW visible
30 Jun ? 00:55:58 33° ESE 00:57:02 46° ENE 01:00:23 10° N visible
30 Jun ? 02:29:50 13° W 02:30:17 13° W 02:32:02 10° WNW visible
01 Jul ? 00:24:04 16° E 00:25:37 21° ENE 00:28:18 10° NNE visible
01 Jul ? 01:57:56 28° WSW 01:58:27 29° W 02:01:32 10° NNW visible
01 Jul ? 23:53:45 10° ENE 23:54:19 10° ENE 23:54:53 10° NE visible
02 Jul ? 01:26:01 52° S 01:26:44 73° WSW 01:30:13 10° NNW visible
03 Jul ? 00:54:05 33° ESE 00:55:09 44° ENE 00:58:29 10° N visible
03 Jul ? 02:27:58 14° W 02:28:22 14° W 02:30:16 10° WNW visible
04 Jul ? 00:22:08 15° E 00:23:41 20° ENE 00:26:17 10° NNE visible
04 Jul ? 01:56:01 30° WSW 01:56:28 31° W 01:59:37 10° NNW visible
05 Jul ? 01:24:02 55° S 01:24:43 78° WSW 01:28:13 10° NNW visible
